| time (UTC) | temp F | wind direction | speed MPH | gust MPH | rain 1hr in | rain 24hr in | rain mn in | humidity % | barometer mb |
| 20260905170016 | 87 | 293 | 2.0 | 4.0 | 0.00 | 0.00 | 0.00 | 48 | 1017.2 |
| 20260905165016 | 87 | 158 | 1.0 | 3.0 | 0.00 | 0.00 | 0.00 | 48 | 1017.1 |
| 20260905164016 | 86 | 180 | 1.0 | 4.0 | 0.00 | 0.00 | 0.00 | 49 | 1017.2 |
| 20260905163016 | 86 | 203 | 2.0 | 6.0 | 0.00 | 0.00 | 0.00 | 51 | 1017.2 |
| 20260905162016 | 85 | 113 | 2.0 | 5.0 | 0.00 | 0.00 | 0.00 | 51 | 1017.1 |
| 20260905161016 | 85 | 158 | 1.0 | 6.0 | 0.00 | 0.00 | 0.00 | 52 | 1017.1 |
| 20260905160016 | 84 | 45 | 2.0 | 4.0 | 0.00 | 0.00 | 0.00 | 53 | 1017.0 |
| 20260905155016 | 84 | 203 | 1.0 | 3.0 | 0.00 | 0.00 | 0.00 | 54 | 1016.9 |
| 20260905154016 | 83 | 135 | 1.0 | 3.0 | 0.00 | 0.00 | 0.00 | 55 | 1017.1 |
| 20260905153016 | 82 | 180 | 2.0 | 4.0 | 0.00 | 0.00 | 0.00 | 57 | 1017.1 |
| 20260905152016 | 81 | 135 | 1.0 | 3.0 | 0.00 | 0.00 | 0.00 | 59 | 1017.1 |
| 20260905151016 | 81 | 158 | 2.0 | 4.0 | 0.00 | 0.00 | 0.00 | 60 | 1017.0 |
| 20260905150016 | 80 | 135 | 1.0 | 2.0 | 0.00 | 0.00 | 0.00 | 61 | 1016.9 |
| 20260905145016 | 80 | 135 | 2.0 | 4.0 | 0.00 | 0.00 | 0.00 | 63 | 1017.0 |
| 20260905144016 | 79 | 135 | 2.0 | 4.0 | 0.00 | 0.00 | 0.00 | 64 | 1016.9 |
| 20260905143016 | 79 | 135 | 1.0 | 4.0 | 0.00 | 0.00 | 0.00 | 65 | 1016.9 |
| 20260905142016 | 78 | 0.0 | 4.0 | 0.00 | 0.00 | 0.00 | 65 | 1016.8 | |
| 20260905141016 | 77 | 0.0 | 1.0 | 0.00 | 0.00 | 0.00 | 66 | 1016.6 | |
| 20260905140016 | 76 | 0.0 | 0.0 | 0.00 | 0.00 | 0.00 | 69 | 1016.5 | |
| 20260905135016 | 76 | 0.0 | 0.0 | 0.00 | 0.00 | 0.00 | 70 | 1016.4 | |
| 20260905134016 | 75 | 0.0 | 0.0 | 0.00 | 0.00 | 0.00 | 71 | 1016.2 | |
| 20260905133016 | 74 | 0.0 | 0.0 | 0.00 | 0.00 | 0.00 | 71 | 1016.0 | |
| 20260905132016 | 74 | 0.0 | 0.0 | 0.00 | 0.00 | 0.00 | 71 | 1015.9 | |
| 20260905131016 | 74 | 0.0 | 0.0 | 0.00 | 0.00 | 0.00 | 70 | 1015.7 | |
| 20260905130016 | 74 | 0.0 | 0.0 | 0.00 | 0.00 | 0.00 | 70 | 1015.7 | |
| 20260905125016 | 75 | 0.0 | 0.0 | 0.00 | 0.00 | 0.00 | 70 | 1015.7 | |
| 20260905124016 | 75 | 90 | 1.0 | 3.0 | 0.00 | 0.00 | 0.00 | 69 | 1015.6 |
| 20260905123016 | 75 | 68 | 2.0 | 3.0 | 0.00 | 0.00 | 0.00 | 69 | 1015.6 |
| 20260905122016 | 75 | 68 | 2.0 | 4.0 | 0.00 | 0.00 | 0.00 | 69 | 1015.6 |
| 20260905121016 | 75 | 68 | 1.0 | 3.0 | 0.00 | 0.00 | 0.00 | 69 | 1015.6 |
| 20260905120016 | 75 | 0.0 | 1.0 | 0.00 | 0.00 | 0.00 | 69 | 1015.5 | |
| 20260905115016 | 75 | 0.0 | 1.0 | 0.00 | 0.00 | 0.00 | 69 | 1015.5 | |
| 20260905114016 | 75 | 0.0 | 0.0 | 0.00 | 0.00 | 0.00 | 68 | 1015.5 | |
| 20260905113016 | 75 | 68 | 2.0 | 4.0 | 0.00 | 0.00 | 0.00 | 68 | 1015.5 |
| 20260905112016 | 75 | 90 | 2.0 | 6.0 | 0.00 | 0.00 | 0.00 | 68 | 1015.5 |
| 20260905111016 | 76 | 68 | 1.0 | 2.0 | 0.00 | 0.00 | 0.00 | 68 | 1015.5 |
| 20260905110016 | 76 | 68 | 1.0 | 2.0 | 0.00 | 0.00 | 0.00 | 67 | 1015.4 |
| 20260905105016 | 76 | 0.0 | 0.0 | 0.00 | 0.00 | 0.00 | 67 | 1015.3 | |
| 20260905104016 | 76 | 90 | 2.0 | 3.0 | 0.00 | 0.00 | 0.00 | 66 | 1015.3 |
| 20260905103016 | 76 | 68 | 2.0 | 3.0 | 0.00 | 0.00 | 0.00 | 66 | 1015.4 |
| 20260905102016 | 77 | 90 | 2.0 | 5.0 | 0.00 | 0.00 | 0.00 | 65 | 1015.5 |
| 20260905101016 | 77 | 90 | 3.0 | 5.0 | 0.00 | 0.00 | 0.00 | 65 | 1015.5 |
| 20260905100016 | 77 | 90 | 3.0 | 7.0 | 0.00 | 0.00 | 0.00 | 65 | 1015.6 |
| 20260905095016 | 77 | 68 | 1.0 | 4.0 | 0.00 | 0.00 | 0.00 | 65 | 1015.5 |
| 20260905094016 | 77 | 68 | 3.0 | 5.0 | 0.00 | 0.00 | 0.00 | 65 | 1015.5 |
| 20260905093016 | 77 | 68 | 1.0 | 3.0 | 0.00 | 0.00 | 0.00 | 65 | 1015.4 |
| 20260905092016 | 77 | 0.0 | 1.0 | 0.00 | 0.00 | 0.00 | 64 | 1015.5 | |
| 20260905091016 | 77 | 68 | 1.0 | 2.0 | 0.00 | 0.00 | 0.00 | 64 | 1015.5 |
| 20260905090016 | 77 | 68 | 1.0 | 2.0 | 0.00 | 0.00 | 0.00 | 64 | 1015.5 |
| 20260905085016 | 78 | 0.0 | 0.0 | 0.00 | 0.00 | 0.00 | 64 | 1015.5 | |
| 20260905084016 | 78 | 0.0 | 0.0 | 0.00 | 0.00 | 0.00 | 63 | 1015.5 | |
| 20260905083016 | 78 | 0.0 | 0.0 | 0.00 | 0.00 | 0.00 | 63 | 1015.6 | |
| 20260905082016 | 79 | 0.0 | 0.0 | 0.00 | 0.00 | 0.00 | 61 | 1015.6 | |
| 20260905081016 | 79 | 0.0 | 0.0 | 0.00 | 0.00 | 0.00 | 61 | 1015.7 | |
| 20260905080016 | 79 | 68 | 1.0 | 3.0 | 0.00 | 0.00 | 0.00 | 60 | 1015.9 |
| 20260905075016 | 79 | 0.0 | 2.0 | 0.00 | 0.00 | 0.00 | 60 | 1015.9 | |
| 20260905074016 | 80 | 90 | 1.0 | 2.0 | 0.00 | 0.00 | 0.00 | 59 | 1015.9 |
| 20260905073016 | 80 | 0.0 | 1.0 | 0.00 | 0.00 | 0.00 | 59 | 1015.8 | |
| 20260905072016 | 80 | 0 | 1.0 | 2.0 | 0.00 | 0.00 | 0.00 | 59 | 1015.7 |
| 20260905071016 | 81 | 113 | 2.0 | 4.0 | 0.00 | 0.00 | 0.00 | 58 | 1015.7 |
| 20260905070016 | 81 | 90 | 1.0 | 3.0 | 0.00 | 0.00 | 0.00 | 57 | 1015.7 |
| 20260905065016 | 81 | 113 | 3.0 | 6.0 | 0.00 | 0.00 | 0.00 | 57 | 1015.7 |
| 20260905064016 | 81 | 113 | 2.0 | 4.0 | 0.00 | 0.00 | 0.00 | 57 | 1015.7 |
| 20260905063016 | 81 | 135 | 2.0 | 5.0 | 0.00 | 0.00 | 0.00 | 56 | 1015.6 |
| 20260905062016 | 82 | 113 | 2.0 | 3.0 | 0.00 | 0.00 | 0.00 | 55 | 1015.7 |
| 20260905061016 | 82 | 113 | 3.0 | 7.0 | 0.00 | 0.00 | 0.00 | 54 | 1015.6 |
| 20260905060016 | 82 | 90 | 3.0 | 6.0 | 0.00 | 0.00 | 0.00 | 54 | 1015.6 |
| 20260905055016 | 82 | 90 | 4.0 | 7.0 | 0.00 | 0.00 | 0.00 | 52 | 1015.7 |
| 20260905054016 | 83 | 90 | 3.0 | 6.0 | 0.00 | 0.00 | 0.00 | 50 | 1015.5 |
| 20260905053016 | 83 | 90 | 4.0 | 9.0 | 0.00 | 0.00 | 0.00 | 48 | 1015.3 |
| 20260905052016 | 83 | 0 | 2.0 | 3.0 | 0.00 | 0.00 | 0.00 | 48 | 1015.2 |
| 20260905051016 | 84 | 0 | 2.0 | 3.0 | 0.00 | 0.00 | 0.00 | 47 | 1015.2 |
| 20260905050016 | 84 | 0 | 2.0 | 3.0 | 0.00 | 0.00 | 0.00 | 46 | 1015.2 |
| 20260905045016 | 84 | 338 | 2.0 | 3.0 | 0.00 | 0.00 | 0.00 | 46 | 1015.2 |
| 20260905044016 | 85 | 0 | 2.0 | 3.0 | 0.00 | 0.00 | 0.00 | 45 | 1015.2 |
| 20260905043016 | 85 | 0.0 | 2.0 | 0.00 | 0.00 | 0.00 | 44 | 1015.2 | |
| 20260905042016 | 85 | 315 | 1.0 | 3.0 | 0.00 | 0.00 | 0.00 | 44 | 1015.2 |
| 20260905041016 | 86 | 0.0 | 2.0 | 0.00 | 0.00 | 0.00 | 43 | 1015.2 | |
| 20260905040016 | 87 | 0.0 | 2.0 | 0.00 | 0.00 | 0.00 | 42 | 1015.1 | |
| 20260905035016 | 87 | 0.0 | 2.0 | 0.00 | 0.00 | 0.00 | 41 | 1015.0 | |
| 20260905034016 | 87 | 315 | 2.0 | 5.0 | 0.00 | 0.00 | 0.00 | 41 | 1015.0 |
| 20260905033016 | 87 | 315 | 1.0 | 6.0 | 0.00 | 0.00 | 0.00 | 40 | 1014.8 |
| 20260905032016 | 87 | 315 | 1.0 | 3.0 | 0.00 | 0.00 | 0.00 | 39 | 1014.6 |
| 20260905031016 | 88 | 315 | 1.0 | 3.0 | 0.00 | 0.00 | 0.00 | 38 | 1014.5 |
| 20260905030016 | 88 | 315 | 1.0 | 3.0 | 0.00 | 0.00 | 0.00 | 38 | 1014.4 |
| 20260905025016 | 88 | 315 | 4.0 | 9.0 | 0.00 | 0.00 | 0.00 | 37 | 1014.2 |
| 20260905024016 | 88 | 315 | 3.0 | 5.0 | 0.00 | 0.00 | 0.00 | 36 | 1013.9 |
| 20260905023016 | 89 | 315 | 2.0 | 4.0 | 0.00 | 0.00 | 0.00 | 36 | 1013.8 |
| 20260905022016 | 89 | 315 | 3.0 | 7.0 | 0.00 | 0.00 | 0.00 | 35 | 1013.8 |
| 20260905021016 | 89 | 0 | 2.0 | 4.0 | 0.00 | 0.00 | 0.00 | 35 | 1013.8 |
| 20260905020016 | 90 | 0 | 3.0 | 8.0 | 0.00 | 0.00 | 0.00 | 34 | 1013.7 |
| 20260905015016 | 90 | 0 | 3.0 | 8.0 | 0.00 | 0.00 | 0.00 | 34 | 1013.6 |
| 20260905014016 | 90 | 0 | 4.0 | 10.0 | 0.00 | 0.00 | 0.00 | 33 | 1013.5 |
| 20260905013016 | 90 | 270 | 5.0 | 9.0 | 0.00 | 0.00 | 0.00 | 32 | 1013.6 |
| 20260905012016 | 91 | 293 | 2.0 | 6.0 | 0.00 | 0.00 | 0.00 | 32 | 1013.5 |
| 20260905011016 | 91 | 293 | 4.0 | 9.0 | 0.00 | 0.00 | 0.00 | 32 | 1013.3 |
| 20260905010016 | 92 | 293 | 6.0 | 11.0 | 0.00 | 0.00 | 0.00 | 31 | 1013.3 |
| 20260905005016 | 92 | 293 | 5.0 | 10.0 | 0.00 | 0.00 | 0.00 | 31 | 1013.3 |
| 20260905004016 | 92 | 293 | 4.0 | 8.0 | 0.00 | 0.00 | 0.00 | 32 | 1013.3 |
| 20260905003016 | 93 | 270 | 4.0 | 8.0 | 0.00 | 0.00 | 0.00 | 33 | 1013.2 |
| 20260905002016 | 92 | 270 | 5.0 | 13.0 | 0.00 | 0.00 | 0.00 | 32 | 1013.0 |
| 20260905001016 | 92 | 270 | 5.0 | 13.0 | 0.00 | 0.00 | 0.00 | 33 | 1013.0 |
| 20260905000016 | 93 | 293 | 5.0 | 12.0 | 0.00 | 0.00 | 0.00 | 34 | 1012.9 |
| 20260904235016 | 92 | 270 | 5.0 | 10.0 | 0.00 | 0.00 | 0.00 | 34 | 1013.0 |
| 20260904234016 | 93 | 293 | 6.0 | 13.0 | 0.00 | 0.00 | 0.00 | 35 | 1013.1 |
| 20260904233016 | 92 | 293 | 6.0 | 12.0 | 0.00 | 0.00 | 0.00 | 34 | 1013.2 |
| 20260904232016 | 92 | 293 | 5.0 | 12.0 | 0.00 | 0.00 | 0.00 | 33 | 1013.3 |
| 20260904231015 | 93 | 270 | 7.0 | 13.0 | 0.00 | 0.00 | 0.00 | 32 | 1013.2 |
| 20260904230016 | 94 | 270 | 6.0 | 11.0 | 0.00 | 0.00 | 0.00 | 32 | 1013.3 |
| 20260904225016 | 94 | 293 | 3.0 | 13.0 | 0.00 | 0.00 | 0.00 | 29 | 1013.3 |
| 20260904224016 | 94 | 270 | 5.0 | 10.0 | 0.00 | 0.00 | 0.00 | 30 | 1013.5 |
| 20260904223016 | 94 | 248 | 5.0 | 12.0 | 0.00 | 0.00 | 0.00 | 31 | 1013.5 |
| 20260904222016 | 95 | 270 | 6.0 | 12.0 | 0.00 | 0.00 | 0.00 | 30 | 1013.6 |
| 20260904221016 | 94 | 270 | 4.0 | 10.0 | 0.00 | 0.00 | 0.00 | 34 | 1013.7 |
| 20260904220016 | 93 | 270 | 4.0 | 9.0 | 0.00 | 0.00 | 0.00 | 34 | 1013.7 |
| 20260904215016 | 92 | 270 | 6.0 | 11.0 | 0.00 | 0.00 | 0.00 | 35 | 1013.8 |
| 20260904214016 | 92 | 225 | 2.0 | 4.0 | 0.00 | 0.00 | 0.00 | 38 | 1013.9 |
| 20260904213017 | 94 | 225 | 5.0 | 14.0 | 0.00 | 0.00 | 0.00 | 36 | 1013.9 |
| 20260904212016 | 94 | 248 | 6.0 | 10.0 | 0.00 | 0.00 | 0.00 | 36 | 1014.1 |
| 20260904211015 | 93 | 315 | 4.0 | 11.0 | 0.00 | 0.00 | 0.00 | 35 | 1014.4 |
| 20260904210016 | 94 | 270 | 7.0 | 12.0 | 0.00 | 0.00 | 0.00 | 35 | 1014.4 |
| 20260904205015 | 94 | 270 | 4.0 | 9.0 | 0.00 | 0.00 | 0.00 | 34 | 1014.5 |
| 20260904204016 | 93 | 270 | 5.0 | 9.0 | 0.00 | 0.00 | 0.00 | 36 | 1014.6 |
| 20260904203016 | 94 | 270 | 5.0 | 9.0 | 0.00 | 0.00 | 0.00 | 35 | 1014.9 |
| 20260904202016 | 92 | 293 | 3.0 | 8.0 | 0.00 | 0.00 | 0.00 | 37 | 1014.9 |
| 20260904201015 | 93 | 270 | 5.0 | 8.0 | 0.00 | 0.00 | 0.00 | 35 | 1015.0 |
| 20260904200016 | 93 | 225 | 4.0 | 8.0 | 0.00 | 0.00 | 0.00 | 35 | 1015.2 |
| 20260904195016 | 92 | 45 | 1.0 | 4.0 | 0.00 | 0.00 | 0.00 | 40 | 1015.3 |
| 20260904194016 | 93 | 270 | 4.0 | 8.0 | 0.00 | 0.00 | 0.00 | 40 | 1015.5 |
| 20260904193016 | 92 | 248 | 4.0 | 10.0 | 0.00 | 0.00 | 0.00 | 41 | 1015.7 |
| 20260904192015 | 91 | 0 | 3.0 | 9.0 | 0.00 | 0.00 | 0.00 | 43 | 1015.8 |
| 20260904191015 | 91 | 203 | 2.0 | 6.0 | 0.00 | 0.00 | 0.00 | 38 | 1015.9 |
| 20260904190016 | 90 | 270 | 2.0 | 9.0 | 0.00 | 0.00 | 0.00 | 45 | 1016.0 |
| 20260904185015 | 90 | 248 | 3.0 | 8.0 | 0.00 | 0.00 | 0.00 | 43 | 1016.1 |
| 20260904184015 | 89 | 270 | 3.0 | 6.0 | 0.00 | 0.00 | 0.00 | 46 | 1016.2 |
| 20260904183015 | 89 | 315 | 2.0 | 7.0 | 0.00 | 0.00 | 0.00 | 47 | 1016.4 |
| 20260904182015 | 89 | 270 | 3.0 | 7.0 | 0.00 | 0.00 | 0.00 | 47 | 1016.6 |
| 20260904181016 | 90 | 225 | 2.0 | 5.0 | 0.00 | 0.00 | 0.00 | 49 | 1016.7 |
| 20260904180015 | 87 | 270 | 2.0 | 4.0 | 0.00 | 0.00 | 0.00 | 54 | 1016.9 |
| 20260904175016 | 87 | 203 | 2.0 | 9.0 | 0.00 | 0.00 | 0.00 | 55 | 1017.0 |
| 20260904174016 | 86 | 0 | 3.0 | 5.0 | 0.00 | 0.00 | 0.00 | 57 | 1017.1 |
| 20260904173015 | 86 | 68 | 2.0 | 9.0 | 0.00 | 0.00 | 0.00 | 57 | 1017.1 |
| 20260904172015 | 85 | 203 | 2.0 | 9.0 | 0.00 | 0.00 | 0.00 | 57 | 1017.3 |
| 20260904171016 | 84 | 113 | 4.0 | 9.0 | 0.00 | 0.00 | 0.00 | 57 | 1017.4 |